GFSNGP_prec_cloud_102.txt.gz
Cloud_Cover
83 98 69 98 92 0 0 0 5 8 2 100 100 100 100 100 100 100 100 100 100 100 100 100 100 100 78 100 100 100 100 100 95 93 14 11 25 26 15 26 5 100 100 23
82 0 4 23 4 0 0 0 0 5 5 50 100 100 100 100 100 100 100 100 100 100 100 100 97 100 84 84 100 100 100 100 100 100 68 98 74 100 73 56 40 100 100 84
75 86 5 8 51 11 2 0 0 2 2 0 0 32 87 100 100 100 100 100 100 100 100 100 100 100 100 99 100 100 100 100 100 100 100 100 100 100 100 82 86 84 100 98
100 89 5 99 62 4 0 0 0 0 0 0 2 35 81 89 100 95 100 100 100 100 100 100 100 100 95 94 100 99 95 100 100 100 100 100 100 100 100 100 100 100 80 79
92 96 94 6 5 4 5 67 0 0 0 3 91 92 99 51 44 98 100 100 100 100 100 100 100 100 100 100 100 100 100 100 100 100 100 100 100 100 100 100 100 100 90 33
100 80 95 100 5 0 5 16 5 18 100 100 92 100 98 100 99 97 100 100 100 100 100 100 100 100 100 100 100 100 100 100 100 100 100 100 100 98 100 100 100 100 92 64
100 100 100 31 5 5 15 83 77 100 100 100 100 100 81 58 97 97 100 100 100 100 100 100 100 100 100 100 100 100 100 100 100 100 100 100 100 98 100 100 100 100 100 97
92 100 100 5 5 9 6 5 57 83 100 100 100 100 100 100 100 100 100 100 100 100 100 100 100 100 100 100 100 100 100 100 100 100 100 100 100 100 100 100 100 100 100 100
27 90 46 10 2 5 5 38 5 66 87 100 100 100 100 100 100 100 100 100 100 100 100 100 100 100 100 100 100 100 100 100 100 100 100 100 100 100 100 100 97 100 100 100
95 43 100 29 4 5 5 5 45 86 89 100 100 100 100 100 100 100 100 100 100 100 100 100 100 100 100 100 100 100 100 100 100 100 100 100 100 100 100 100 100 100 100 100
90 85 93 100 79 9 5 69 99 70 96 100 100 100 100 100 100 100 100 100 100 100 100 100 100 100 100 100 100 100 24 75 100 100 100 100 100 100 100 100 100 100 100 100
100 94 22 100 100 83 39 77 69 100 96 100 100 100 100 100 100 100 100 100 100 100 100 100 100 100 100 100 100 100 98 54 5 5 6 4 54 100 97 94 100 100 100 100
100 98 61 24 100 100 100 100 98 70 100 100 100 100 100 100 100 100 100 100 100 100 100 100 100 100 100 100 100 100 99 87 23 98 5 5 4 0 2 86 100 100 90 99
0 22 95 6 5 90 100 100 70 98 100 100 100 100 100 100 100 100 100 100 100 100 100 100 100 100 100 100 100 93 85 88 73 88 92 93 84 10 29 19 1 33 94 96
0 0 0 76 20 8 57 100 100 100 100 100 91 100 100 100 100 100 100 100 100 100 100 100 100 100 100 100 100 100 100 100 99 94 81 98 83 55 82 49 4 1 0 14
0 0 0 0 6 38 6 7 99 92 100 100 82 100 100 100 100 100 100 100 100 100 100 100 100 100 100 100 100 100 100 100 100 100 100 100 100 28 4 0 0 0 0 4
0 0 0 0 0 0 2 5 13 28 58 100 99 80 100 100 100 100 100 100 100 100 100 100 100 100 100 100 100 100 100 100 100 100 100 100 100 86 44 7 20 6 0 14
5 0 0 0 0 0 0 0 0 0 0 65 83 90 100 86 100 100 100 100 94 98 100 100 100 100 100 100 100 100 100 100 100 100 100 100 95 100 100 34 5 4 6 44
53 14 4 3 2 2 2 0 0 0 0 0 0 2 31 96 100 100 100 100 100 100 84 82 30 65 100 100 100 100 100 100 100 100 100 100 100 100 100 100 77 78 38 5
87 48 25 16 10 5 4 1 0 1 5 0 0 0 0 0 11 25 42 100 100 100 46 80 100 100 99 86 87 100 98 100 100 100 100 100 98 54 35 82 59 5 5 8
10 82 74 94 98 88 42 6 5 20 37 4 5 0 0 0 3 16 16 4 56 87 100 96 97 98 90 98 100 100 100 100 100 100 100 100 100 100 100 99 76 14 37 45
5 5 5 5 5 14 52 15 15 5 16 1 0 0 0 2 0 0 0 2 40 65 60 76 77 73 90 99 84 67 95 100 100 100 100 100 100 100 100 50 22 85 81 37
5 5 5 5 5 5 5 48 69 5 20 100 3 0 1 0 0 0 0 3 3 12 8 44 100 76 34 94 88 74 98 100 100 100 77 65 94 59 27 57 94 93 79 70
14 30 5 5 4 5 4 5 71 33 98 100 5 0 6 5 2 3 72 49 80 11 22 66 83 100 70 98 100 100 97 100 98 100 100 100 100 88 70 64 59 72 62 100
100 100 100 56 5 5 5 5 81 100 100 100 13 6 14 0 1 30 42 44 0 11 40 44 43 67 40 90 97 100 100 99 75 100 100 100 100 100 100 100 100 100 83 78
100 100 100 100 42 64 30 52 94 100 68 100 58 14 8 3 3 25 50 6 29 5 36 18 14 93 76 100 59 100 100 100 96 99 94 100 100 100 100 100 100 100 99 87
100 100 100 100 100 98 100 100 100 100 100 100 93 5 5 0 4 1 10 84 72 98 76 15 22 3 20 40 83 99 100 100 99 100 100 100 100 100 100 100 100 100 100 100

GFSNGP_prec_cloud_105.txt.gz
Cloud_Cover
100 95 60 100 88 5 5 5 96 100 97 100 58 100 100 100 100 100 100 95 100 100 100 100 96 100 90 75 96 100 100 100 100 100 100 100 92 88 72 5 12 5 31 99
8 100 100 100 91 32 100 19 5 24 62 100 88 1 99 100 99 100 100 100 90 100 100 100 100 92 83 94 62 100 100 100 99 100 100 59 71 39 77 81 6 5 42 55
98 94 100 73 90 100 97 66 55 92 22 97 93 2 12 100 100 100 100 100 99 98 100 100 100 100 100 100 87 99 95 100 100 100 89 100 99 100 78 78 99 50 78 100
100 100 22 96 22 30 8 95 75 44 88 1 58 12 19 67 100 100 100 100 100 100 100 100 100 100 97 100 100 90 100 73 93 100 100 100 97 100 100 100 100 100 100 100
100 90 78 98 66 2 2 98 3 89 2 77 20 25 18 100 100 100 100 100 99 100 100 98 100 100 100 100 100 100 82 91 92 96 100 100 100 100 100 100 100 100 100 100
99 70 100 98 100 84 0 4 5 100 88 49 15 0 0 24 100 91 100 100 100 100 100 100 100 100 100 100 100 100 100 100 100 100 99 100 100 100 100 100 100 100 100 100
99 22 15 94 62 100 66 85 6 9 84 99 98 62 93 100 98 98 100 100 100 100 100 100 100 100 100 100 100 100 100 100 100 100 100 100 100 100 100 100 100 100 100 100
100 48 100 21 69 97 100 32 89 72 15 23 93 97 80 85 100 100 100 100 100 100 100 100 100 100 100 100 100 100 100 100 100 100 100 100 97 100 100 100 100 100 100 100
15 88 28 7 5 6 5 5 57 18 36 60 100 100 100 100 100 100 100 100 100 100 100 100 100 100 100 100 100 100 100 100 100 100 100 100 100 100 100 100 100 100 100 100
99 98 100 90 62 4 0 6 100 35 17 100 100 100 100 100 100 100 100 100 100 100 100 100 100 100 100 100 100 100 100 100 100 100 100 100 100 100 100 98 100 100 100 100
31 64 100 99 86 5 4 1 39 37 28 52 100 100 100 100 100 100 100 100 100 100 100 100 100 93 100 100 100 100 100 100 100 97 98 78 62 100 100 100 100 100 100 100
100 100 78 77 12 5 5 59 100 66 60 64 99 100 100 100 100 100 100 100 100 100 100 97 100 100 100 100 100 97 100 100 100 100 100 45 5 5 11 100 100 100 100 100
95 97 100 87 7 16 20 6 48 36 12 11 100 100 100 100 100 100 100 100 100 100 100 100 100 100 100 100 100 100 100 100 100 100 94 25 4 5 74 59 33 100 100 100
0 25 100 100 85 34 99 100 70 68 78 23 78 100 100 100 100 100 99 100 100 100 100 100 100 100 100 100 100 100 100 100 100 100 100 84 70 22 5 5 5 37 48 100
0 3 67 19 85 22 17 100 100 97 98 72 97 94 100 100 100 100 100 100 100 100 100 100 100 100 100 100 100 100 100 100 100 100 100 100 93 62 29 52 30 94 98 14
1 2 4 5 5 8 5 6 96 100 100 100 99 97 85 100 100 100 100 100 100 100 100 100 100 100 100 100 100 100 100 100 100 100 88 100 100 98 82 57 9 31 31 72
5 5 5 5 5 5 1 5 5 54 100 100 100 100 100 78 100 100 100 100 100 100 100 100 100 99 100 91 100 100 100 100 100 100 100 100 100 100 100 100 100 100 100 100
5 5 5 2 5 5 5 5 2 1 5 4 61 57 100 100 100 18 53 100 100 100 100 100 100 100 100 89 100 99 93 100 100 100 100 100 100 100 100 100 100 100 100 100
5 5 5 5 5 5 5 5 4 4 3 3 2 5 11 65 100 100 100 100 100 100 100 100 100 100 100 100 96 96 100 100 100 100 100 100 100 100 100 100 100 100 100 100
42 7 5 5 5 5 5 5 5 40 70 78 47 22 8 20 63 98 100 32 41 100 100 100 100 100 100 100 100 100 100 100 100 100 100 100 100 100 100 100 100 100 100 100
5 5 5 5 5 2 1 4 5 6 75 100 19 4 4 4 20 16 82 25 79 78 87 100 100 100 100 100 100 97 88 100 100 100 100 100 100 100 100 100 100 100 100 100
26 10 81 25 28 8 15 5 5 5 23 5 5 12 81 5 4 2 3 1 64 66 52 100 77 36 80 97 100 100 100 95 84 100 79 91 99 98 83 96 100 100 100 100
100 100 100 100 100 100 100 82 5 3 5 7 26 2 5 5 88 96 15 33 1 29 0 3 40 94 98 100 100 100 100 75 100 79 100 99 81 100 97 84 80 94 90 76
100 100 100 100 100 100 100 100 5 5 5 0 7 5 5 58 100 100 23 0 0 7 6 27 8 2 0 10 42 71 15 100 100 50 94 100 92 78 100 100 100 100 100 97
54 79 100 100 58 98 100 98 5 4 5 5 8 63 91 100 100 100 12 7 0 12 86 0 0 0 40 90 41 22 46 67 64 79 100 100 90 93 100 100 100 100 100 100
100 100 100 100 100 100 100 67 47 99 70 52 96 100 100 100 100 67 99 26 72 49 96 82 1 6 55 92 77 82 72 74 15 61 95 95 56 35 100 100 100 100 100 100
87 83 100 100 100 100 100 97 99 90 100 100 100 100 100 100 88 8 27 52 87 88 84 92 100 38 6 2 11 58 92 56 88 97 65 77 100 99 96 99 97 100 100 100

GFSNGP_prec_cloud_108.txt.gz
Cloud_Cover
2 81 98 74 32 4 5 2 95 99 100 88 100 100 10 100 100 100 100 100 100 15 13 5 96 100 100 100 100 84 53 98 90 92 96 41 54 82 100 69 5 3 4 4
98 43 83 100 100 29 61 5 0 89 75 96 99 100 70 99 100 100 100 100 100 100 54 33 5 92 100 100 100 90 100 100 100 100 100 89 99 99 100 27 6 5 46 5
73 73 100 92 96 100 100 90 15 62 92 92 6 70 100 100 97 100 100 100 100 100 87 69 56 74 99 34 100 90 100 100 88 98 90 72 96 100 100 32 96 100 100 100
100 100 10 100 68 76 100 89 21 11 43 0 51 91 100 100 100 100 100 100 100 100 100 100 100 100 100 100 100 100 100 100 89 98 81 92 100 100 92 100 99 100 100 100
100 94 100 8 15 98 5 97 5 0 0 0 7 84 98 100 100 100 100 100 100 100 100 100 100 100 100 100 100 100 100 100 80 44 100 88 100 100 100 96 70 100 100 100
100 100 84 48 7 5 5 44 6 0 0 0 0 5 87 100 100 100 100 100 100 100 100 100 100 100 100 100 100 100 100 100 100 98 93 94 100 100 100 98 100 100 100 100
95 98 54 73 6 5 66 71 4 1 4 9 47 86 100 100 100 100 100 100 100 100 100 100 100 100 100 100 100 100 100 100 100 100 100 92 100 77 100 100 100 100 100 100
0 46 89 76 92 90 82 13 5 100 3 86 98 96 87 100 100 100 100 100 100 100 100 100 100 100 100 100 100 100 100 100 100 100 100 100 100 100 100 100 100 100 100 100
33 94 82 91 100 100 100 99 9 6 74 51 100 100 100 100 100 100 100 100 100 100 100 100 100 100 100 100 100 100 100 100 100 100 100 100 100 100 100 100 100 100 100 100
100 66 65 100 100 100 100 7 61 96 37 72 95 100 100 100 100 100 100 100 100 100 100 100 100 100 100 100 100 100 100 100 100 100 100 100 100 100 100 100 100 100 100 100
100 100 100 100 100 97 100 68 98 72 37 43 43 99 100 100 100 100 100 100 100 100 100 100 100 100 100 100 100 100 100 100 100 100 100 100 100 100 100 100 100 100 100 100
15 89 99 83 10 40 95 15 14 63 82 98 12 20 43 100 100 100 100 100 100 100 100 100 100 100 100 100 100 100 100 100 100 100 100 100 100 100 100 100 100 100 100 100
7 97 11 97 6 100 13 100 33 88 53 69 43 15 36 100 100 100 100 100 100 100 100 100 100 100 100 100 100 100 100 100 100 100 100 100 100 100 100 100 100 100 100 100
25 10 8 99 100 34 5 5 17 4 1 3 2 6 5 47 36 99 100 100 100 100 100 100 100 100 45 100 100 100 45 100 100 100 95 100 100 100 100 100 100 92 60 94
5 1 9 55 34 9 8 5 34 62 83 100 13 3 19 34 91 89 100 99 100 100 100 100 100 100 91 100 99 100 100 100 88 72 100 49 66 95 100 100 100 99 96 64
5 5 21 64 4 5 10 23 7 93 94 84 100 89 6 6 96 34 7 88 80 100 100 100 100 82 40 75 100 100 100 100 100 98 100 100 100 100 100 100 100 70 97 85
80 5 4 5 5 5 5 5 5 66 100 50 100 99 100 83 63 11 30 49 100 100 100 100 100 100 99 100 100 100 100 100 90 100 100 100 91 100 100 100 100 100 100 100
8 5 5 5 5 5 5 4 5 6 85 66 54 100 78 100 100 100 36 27 74 95 100 100 100 100 100 100 100 100 100 100 100 100 97 100 100 83 99 100 100 100 100 100
5 5 5 2 5 5 5 2 4 4 0 2 0 0 2 62 100 100 100 100 95 100 100 100 66 81 73 100 100 100 100 100 100 100 93 100 100 100 99 99 98 100 100 100
5 5 5 5 5 5 13 5 1 6 33 89 81 21 0 2 2 8 21 91 100 100 84 29 86 96 100 100 100 100 100 100 100 92 100 83 100 100 76 100 100 100 100 100
5 5 93 100 26 100 100 100 61 8 19 4 54 7 0 59 32 3 1 10 11 36 98 92 89 100 11 8 73 99 100 100 100 100 100 100 88 46 100 99 76 100 99 100
73 93 96 90 48 13 40 76 100 96 35 89 8 1 2 2 0 0 0 25 95 84 72 96 100 39 64 4 0 55 99 42 70 77 87 100 86 100 100 100 96 73 92 58
5 4 5 6 28 79 90 76 100 100 96 10 20 8 3 4 30 44 100 14 6 3 59 37 0 5 5 4 2 7 43 95 100 99 15 69 91 100 100 100 100 100 100 100
5 5 6 5 17 100 100 100 100 100 100 75 61 96 44 6 32 23 5 5 24 94 87 3 5 12 34 0 0 0 2 2 2 2 16 20 7 74 100 100 92 82 100 100
100 100 96 62 100 100 100 100 100 100 100 86 100 100 57 93 93 100 100 100 100 59 90 63 4 0 0 53 6 0 2 4 4 5 5 6 16 1 7 92 100 96 75 100
57 44 68 99 100 66 74 100 100 100 100 100 100 98 54 87 100 100 99 85 100 78 72 6 5 5 1 0 0 0 54 5 8 6 14 6 14 17 5 14 99 10 78 100
100 100 97 82 83 100 100 100 100 100 100 100 100 100 91 95 100 100 97 86 28 66 69 85 6 28 5 1 3 0 0 1 51 9 47 65 72 98 84 18 8 46 92 100

GFSNGP_prec_cloud_111.txt.gz
Cloud_Cover
93 43 94 76 1 5 5 0 86 100 100 100 100 100 100 100 88 87 94 100 10 79 60 94 100 97 100 100 100 100 100 100 100 99 97 53 76 93 28 34 19 4 0 4
58 90 24 100 83 0 1 31 0 95 100 100 100 100 88 100 100 100 72 100 100 50 34 91 94 97 100 100 100 100 100 100 100 100 100 100 100 100 44 64 38 58 68 29
5 87 38 59 100 77 16 100 1 77 19 48 100 100 100 100 100 100 100 100 100 100 56 87 95 100 100 100 100 100 100 100 100 100 100 100 100 100 100 93 100 100 100 100
100 65 26 40 30 100 100 78 3 3 2 0 100 100 100 100 100 100 100 100 100 100 99 91 100 65 100 100 100 100 100 100 100 100 100 100 40 87 100 100 100 100 100 86
95 100 100 95 86 97 100 99 22 1 59 0 20 100 100 100 100 100 100 100 100 100 100 100 100 100 100 100 100 100 100 100 100 100 100 22 92 100 99 100 100 100 94 100
100 24 99 94 49 100 58 87 100 76 2 0 0 97 100 100 100 100 100 100 100 100 100 100 100 100 100 100 100 100 100 100 100 100 100 100 100 100 100 99 100 100 100 100
100 100 99 30 82 48 45 14 63 28 36 9 98 96 100 100 100 100 100 100 100 100 100 100 100 100 100 100 100 100 100 100 100 100 100 100 100 97 94 99 100 98 100 100
69 37 100 100 100 100 70 4 1 4 60 100 67 61 100 100 100 100 100 100 100 100 100 100 100 100 100 100 100 100 100 100 100 100 100 100 100 100 100 100 100 100 100 100
97 94 38 100 100 100 48 50 49 100 96 2 39 72 100 100 100 100 100 100 100 100 100 100 100 100 100 100 100 100 100 100 100 100 100 100 100 100 100 100 85 97 100 78
100 85 30 100 94 100 100 100 97 100 100 9 60 100 100 100 100 100 100 100 100 100 100 100 100 100 100 100 100 100 100 100 100 100 100 100 100 100 100 100 100 100 100 100
100 86 100 100 100 100 100 100 100 100 100 100 76 91 100 99 47 98 72 100 89 100 100 100 100 100 100 100 100 100 100 100 100 100 100 100 100 100 100 100 100 100 100 100
100 100 100 100 100 100 92 100 100 100 100 78 71 10 94 100 94 100 100 100 100 100 100 95 100 93 98 84 100 100 100 100 100 100 100 100 100 100 100 100 100 100 100 100
70 100 70 99 100 100 53 43 100 100 98 99 5 0 28 22 8 98 100 100 100 100 100 85 100 100 100 100 100 100 100 100 100 100 100 100 100 100 100 100 100 100 100 98
12 58 100 98 92 100 100 91 18 47 7 0 0 0 0 0 5 5 24 79 58 21 93 100 100 100 99 81 93 77 100 40 81 100 98 98 99 52 62 100 100 100 100 99
7 95 8 88 96 100 100 80 79 30 2 1 49 1 0 0 0 19 33 8 5 10 26 67 81 83 74 24 81 97 9 5 41 70 47 72 59 100 77 100 75 97 99 100
0 1 84 19 89 70 40 96 67 16 30 96 4 1 1 6 0 2 5 6 29 8 5 5 73 100 100 100 98 98 89 57 56 54 100 44 15 96 21 70 66 100 95 28
4 1 2 91 92 5 5 11 83 11 5 72 9 6 5 2 60 9 0 0 5 2 0 94 100 100 100 100 100 100 100 100 58 94 98 88 14 95 82 48 6 70 86 87
1 6 0 0 0 0 0 0 0 5 5 4 40 82 2 4 57 64 36 96 37 0 2 5 25 94 100 100 100 100 100 100 100 100 97 100 100 100 100 89 48 8 65 100
3 9 0 97 83 65 6 0 0 0 5 0 46 42 32 0 0 8 100 100 70 5 4 16 48 6 6 32 100 100 100 100 100 100 100 100 100 67 81 99 94 73 94 100
10 97 98 52 85 100 100 100 83 89 44 21 24 0 0 0 0 0 42 70 15 0 78 87 10 5 5 14 99 99 100 100 100 100 100 26 100 100 100 96 100 100 98 100
93 92 94 100 72 29 92 100 100 100 100 100 100 18 0 1 0 0 0 0 0 0 0 5 19 3 0 6 5 27 58 61 17 96 86 74 65 26 83 98 100 100 96 99
0 1 5 5 5 5 17 30 40 90 100 100 100 99 26 4 5 2 12 2 0 0 27 44 63 94 66 80 43 12 45 5 5 48 100 88 100 67 12 33 100 25 96 100
0 3 9 5 5 5 5 5 72 41 49 50 96 100 26 2 5 97 24 0 0 0 4 17 58 14 28 54 61 12 6 2 22 27 97 72 100 97 100 56 62 52 86 92
5 17 100 100 99 5 12 47 5 5 8 78 21 100 27 5 3 84 11 5 5 6 86 100 100 100 100 100 100 100 98 42 6 2 6 24 69 5 92 100 100 64 100 49
4 5 5 5 24 99 100 100 6 58 67 94 78 100 79 80 38 72 91 98 62 100 100 100 57 99 88 67 4 2 0 0 0 0 2 6 15 5 5 6 47 62 36 72
3 3 5 41 100 12 90 40 50 95 100 100 99 72 87 63 89 100 100 100 100 98 100 78 32 1 0 0 0 0 0 0 7 5 14 5 5 5 5 5 5 5 9 82
4 4 22 87 26 6 23 74 100 100 100 100 100 94 99 100 100 100 100 100 92 100 93 5 5 5 0 4 0 0 0 0 41 0 0 1 1 0 1 0 8 20 73 44

GFSNGP_prec_cloud_114.txt.gz
Cloud_Cover
90 45 64 97 5 98 40 0 100 100 97 100 100 100 100 100 100 100 100 8 44 98 100 100 100 92 95 95 100 97 94 100 97 100 100 100 100 100 100 40 40 2 5 26
100 100 100 99 100 37 2 0 0 0 95 100 100 100 100 100 100 100 100 96 82 30 28 87 100 97 100 71 100 100 100 100 100 100 100 100 100 100 100 100 100 61 0 8
60 86 100 100 94 43 5 0 0 46 91 100 100 100 100 100 100 100 100 100 100 100 95 100 100 100 100 100 100 73 80 100 100 100 100 100 100 100 100 100 100 100 100 100
35 16 100 100 98 13 86 0 0 0 48 100 100 100 100 100 100 100 100 100 100 100 100 100 100 100 100 100 100 100 99 100 100 100 100 100 100 100 100 100 100 100 100 100
5 88 45 100 85 17 5 84 10 26 100 100 100 100 100 100 100 100 100 100 100 100 100 100 100 100 100 95 100 100 100 100 100 100 100 100 100 100 100 100 100 100 100 100
6 65 100 100 100 69 5 64 36 5 87 100 100 100 100 100 100 100 100 100 100 100 100 100 100 100 100 100 100 100 100 100 100 100 100 100 100 100 100 100 100 100 100 100
94 99 75 99 100 100 95 2 99 73 20 63 100 100 100 100 100 100 100 100 100 100 100 100 100 100 100 100 100 100 100 100 100 100 100 100 100 100 100 100 100 100 99 100
100 100 100 100 100 100 93 54 66 100 52 100 100 100 100 100 100 100 100 100 100 100 100 100 100 100 100 100 100 100 100 100 100 100 100 100 100 100 100 91 98 86 67 100
100 100 100 100 100 100 86 8 23 85 14 5 57 100 100 100 100 100 100 100 100 100 100 100 100 100 100 100 100 100 100 100 100 100 100 100 100 100 100 100 100 100 100 91
100 100 99 81 78 100 53 56 5 5 5 26 100 100 100 100 100 100 100 100 100 100 100 100 100 100 100 100 100 100 100 100 100 100 100 100 100 100 100 100 100 100 100 100
99 100 97 38 56 91 76 53 28 22 4 43 42 53 84 100 100 99 63 82 100 100 100 100 100 100 100 100 100 100 100 100 100 100 100 100 100 100 100 100 100 100 100 100
100 82 13 6 87 100 100 68 99 77 59 1 0 1 33 99 100 100 100 100 96 94 100 100 100 100 66 100 100 100 100 100 100 100 100 100 100 100 100 100 100 100 100 100
100 5 4 5 7 100 100 100 100 95 100 5 0 0 0 1 68 100 100 30 18 5 96 100 100 100 100 100 100 100 97 99 100 84 100 100 100 100 100 100 100 100 100 100
100 100 91 14 39 100 100 100 100 100 100 92 39 6 4 0 0 1 4 5 5 5 5 6 46 62 100 100 100 100 100 100 100 100 100 100 100 100 100 100 100 100 100 100
91 67 89 94 93 100 100 100 100 100 100 98 11 5 3 1 0 0 2 4 3 0 4 6 37 90 83 72 93 85 91 100 90 100 100 100 100 100 90 100 100 99 14 89
88 62 38 96 100 100 100 100 100 80 98 100 98 44 2 1 0 0 0 0 0 1 0 0 0 0 4 2 17 31 16 5 14 67 100 100 100 100 90 87 95 89 100 100
0 0 2 0 26 100 100 81 27 5 47 3 2 1 0 4 3 0 0 0 0 0 0 0 0 0 0 0 0 5 5 34 91 100 95 57 80 98 85 77 28 8 12 85
5 8 2 2 57 5 2 20 16 9 2 10 3 43 39 0 0 0 0 0 0 2 1 0 0 0 0 0 0 0 0 17 39 100 100 100 94 84 100 82 93 100 100 100
100 98 60 95 52 63 55 2 6 8 0 2 4 3 3 18 0 0 0 0 0 3 4 5 3 5 25 6 4 4 4 1 23 87 100 100 100 100 100 100 98 95 100 100
28 88 100 100 53 30 67 93 99 49 100 100 96 96 21 14 97 100 74 10 3 0 0 0 0 0 4 23 8 6 5 50 17 4 31 10 33 100 100 100 97 96 100 100
0 0 2 5 5 5 3 2 4 3 0 22 93 99 11 77 5 10 4 4 2 5 2 0 0 0 1 2 4 2 8 3 14 5 5 5 77 75 8 31 97 88 42 96
0 0 0 1 5 5 4 5 6 77 100 71 5 4 2 3 31 4 1 0 0 4 2 0 0 2 57 86 60 89 96 96 25 15 68 91 81 64 100 32 56 4 20 64
0 0 3 4 46 91 9 5 21 92 66 38 8 5 5 5 5 5 28 2 4 4 5 4 4 4 0 5 6 5 5 5 12 5 5 43 25 100 100 100 94 63 66 8
0 0 5 5 5 20 17 5 5 5 5 5 33 80 66 68 5 28 78 66 24 5 5 5 5 5 54 95 94 98 48 5 4 55 98 58 12 66 96 14 96 19 56 96
1 5 5 5 9 61 87 5 5 5 28 88 21 94 100 58 5 19 61 26 5 6 45 78 92 100 100 100 48 0 0 0 0 0 0 0 19 28 10 5 5 5 41 20
60 28 26 16 83 40 21 81 82 64 58 85 97 100 98 39 29 17 41 62 34 9 26 97 100 99 51 2 0 0 0 0 4 2 10 3 5 5 5 5 4 8 4 5
98 84 86 100 100 100 94 100 94 96 100 100 100 100 100 87 92 100 100 100 98 100 100 100 98 5 2 0 5 2 0 0 42 0 0 0 0 0 0 2 22 26 38 27

GFSNGP_prec_cloud_117.txt.gz
Cloud_Cover
100 100 86 53 10 1 4 0 4 11 100 100 100 100 100 100 98 98 82 100 100 100 100 98 99 100 100 100 100 64 100 81 76 100 95 89 100 100 100 100 99 7 15 67
100 100 98 96 5 3 5 1 92 61 100 100 100 100 100 100 100 100 100 100 100 100 100 100 100 100 100 100 100 100 100 84 100 92 30 73 100 51 100 100 100 100 47 100
100 100 100 32 5 1 5 5 0 27 100 100 100 100 100 100 100 100 100 100 100 100 100 100 100 100 100 100 100 100 100 100 88 100 100 100 99 100 100 100 100 100 100 100
100 98 92 94 23 77 10 5 5 4 100 100 100 100 100 100 100 100 100 100 100 100 100 100 98 92 100 100 100 100 100 100 100 100 100 100 100 100 100 100 100 100 100 100
67 39 15 100 100 100 100 91 71 5 6 100 100 100 100 100 100 100 100 100 100 100 100 100 100 100 99 100 100 100 100 100 100 100 100 100 100 100 100 100 100 100 100 100
0 0 23 100 100 100 100 100 93 5 5 5 95 100 100 100 100 100 100 100 100 100 100 100 100 100 100 100 100 100 100 96 100 100 100 100 100 100 100 100 100 100 100 100
4 0 1 99 100 100 78 61 100 43 72 5 45 99 100 100 100 100 100 100 100 100 100 100 100 100 100 100 100 100 100 100 98 100 100 100 100 100 100 100 100 100 100 100
5 2 24 3 100 100 96 100 100 74 5 59 100 100 100 100 100 100 100 100 100 100 100 100 100 100 100 100 100 100 100 100 100 100 100 100 100 100 100 100 100 100 100 100
21 5 40 7 6 96 100 100 89 38 36 99 100 100 100 100 100 100 100 100 100 100 100 100 100 100 100 100 100 100 100 100 100 100 100 100 100 100 100 100 100 100 100 100
93 97 85 98 100 100 100 100 100 18 23 85 100 100 100 100 100 100 100 100 100 100 100 100 100 100 100 100 100 100 100 100 100 100 100 100 100 100 100 100 100 100 100 100
5 5 79 91 58 100 100 49 69 5 4 41 91 96 100 78 68 44 100 100 100 100 100 100 100 100 100 100 100 100 100 100 100 100 100 100 100 100 100 100 100 100 100 100
1 5 5 65 13 83 100 93 98 5 15 6 1 4 0 15 83 94 100 100 100 100 100 100 100 100 100 100 100 100 100 100 100 100 100 100 100 100 100 100 100 100 100 100
0 3 5 44 100 60 68 97 76 56 5 7 1 0 0 0 10 99 100 100 100 100 100 100 100 100 100 100 100 100 100 100 100 100 100 100 100 100 100 100 100 100 100 100
5 0 4 5 8 33 5 83 56 34 94 21 0 0 4 0 0 0 2 82 100 100 100 100 100 100 100 100 100 100 100 100 100 100 100 100 96 96 96 100 100 100 100 100
5 5 5 23 5 20 86 5 75 90 100 32 4 0 0 5 2 0 0 2 88 100 100 100 100 100 100 100 100 100 100 100 100 100 100 100 100 100 100 100 100 100 100 100
86 53 4 18 94 5 5 5 9 21 73 64 98 11 2 5 0 0 0 0 0 0 5 6 4 81 100 100 100 100 100 100 100 100 100 100 100 100 100 100 100 100 100 100
0 12 36 86 65 100 100 65 5 6 51 99 39 30 5 3 4 2 1 3 0 0 0 0 0 0 0 0 3 81 98 98 97 96 100 100 99 94 100 100 100 100 99 100
1 0 0 0 0 5 50 93 80 100 66 34 16 97 40 2 0 2 1 0 0 0 0 0 0 0 0 0 0 0 0 0 0 0 0 0 2 8 36 87 100 100 99 100
66 28 2 4 51 27 53 43 17 20 99 96 96 86 64 21 13 0 5 0 0 6 0 3 4 3 3 8 19 6 5 4 3 0 0 0 0 0 0 0 0 0 2 5
48 100 45 0 4 12 8 6 15 10 6 0 1 4 3 0 0 0 1 21 33 2 0 0 0 0 0 1 0 3 5 5 5 5 6 16 3 5 5 5 3 0 0 0
0 0 0 3 11 5 5 5 2 0 0 4 1 4 4 1 0 0 1 3 0 0 0 0 2 0 0 2 4 16 87 42 4 12 4 2 5 5 5 5 5 5 5 5
0 0 0 0 4 5 2 0 2 1 1 3 4 6 55 59 4 5 5 5 4 4 0 0 0 0 0 1 2 0 21 1 7 41 98 79 5 2 62 81 62 39 100 14
5 3 5 2 5 2 5 8 12 5 0 0 0 3 5 5 5 5 5 3 5 5 4 5 5 5 5 5 5 1 2 0 0 0 0 1 4 55 42 26 5 72 100 32
5 5 5 5 5 2 4 0 5 7 5 5 5 5 5 5 18 22 71 5 5 5 5 5 5 1 2 2 5 5 2 5 4 5 0 0 68 89 60 17 5 13 12 33
100 100 100 46 13 6 5 6 30 8 6 19 5 9 18 54 96 72 97 5 5 5 5 4 4 5 5 5 5 12 53 6 1 0 0 0 4 5 6 86 90 48 12 5
100 100 100 100 100 100 93 72 66 66 85 36 49 50 99 100 100 100 100 97 35 71 31 22 19 60 57 62 100 78 1 1 3 4 10 0 0 0 1 0 0 0 6 14
42 99 99 100 100 100 100 94 100 86 99 99 77 100 100 100 100 100 100 100 100 96 99 99 100 100 98 48 6 3 0 0 41 0 0 0 0 0 0 0 0 18 70 93